Location: Edinburgh
(55.9500°N, 3.1600°W)
Time: 17:42:19
(UTC+01:00)

KKS-1 - Visible Passes

Search period start: 28 May 2024 00:00
Search period end: 07 June 2024 00:00
Orbit: 627 x 639 km, 98.1° (Epoch: 27 May)

Date Brightness Start Highest point End Pass type
(mag) Time Alt. Az. Time Alt. Az. Time Alt. Az.
28 May ? 01:07:14 10° NNE 01:11:39 71° WNW 01:15:08 16° SSW visible
28 May ? 02:44:47 10° NNW 02:47:18 15° NW 02:49:49 10° W visible
28 May ? 23:52:35 10° NE 23:56:24 28° E 23:59:21 14° SSE visible
29 May ? 01:28:43 10° N 01:32:59 48° WNW 01:36:48 12° SW visible
29 May ? 03:07:05 10° NNW 03:08:22 11° NW 03:09:40 10° WNW visible
30 May ? 00:13:44 10° NNE 00:17:56 41° E 00:21:01 17° SSE visible
30 May ? 01:50:16 10° N 01:54:14 33° WNW 01:58:10 10° SW visible
30 May ? 23:01:23 10° ENE 23:02:06 10° E 23:02:50 10° E visible
31 May ? 00:35:01 10° NNE 00:39:24 62° ESE 00:42:40 17° S visible
31 May ? 02:11:54 10° N 02:15:26 24° WNW 02:18:57 10° WSW visible
31 May ? 23:21:08 10° NE 23:23:48 16° E 23:26:28 10° SE visible
01 Jun ? 00:56:22 10° NNE 01:00:48 88° WNW 01:04:19 16° SSW visible
01 Jun ? 02:33:39 10° N 02:36:35 18° NW 02:39:30 10° W visible
01 Jun ? 23:41:54 10° NE 23:45:25 23° E 23:48:30 12° SE visible
02 Jun ? 01:17:47 10° N 01:22:08 59° WNW 01:25:57 13° SW visible
02 Jun ? 02:55:38 10° NNW 02:57:40 13° NW 02:59:42 10° WNW visible
03 Jun ? 00:02:57 10° NNE 00:06:58 33° E 00:10:09 14° SSE visible
03 Jun ? 01:39:18 10° N 01:43:25 40° WNW 01:47:30 10° SW visible
04 Jun ? 00:24:09 10° NNE 00:28:27 50° E 00:31:47 16° S visible
04 Jun ? 02:00:51 10° N 02:04:38 28° WNW 02:08:23 10° WSW visible
04 Jun ? 23:10:47 10° ENE 23:12:43 13° E 23:14:39 10° ESE visible
05 Jun ? 00:45:27 10° NNE 00:49:52 76° ESE 00:53:24 16° S visible
05 Jun ? 02:22:31 10° N 02:25:47 21° NW 02:29:02 10° WSW visible
05 Jun ? 23:31:14 10° NE 23:34:22 19° E 23:37:27 10° SE visible
06 Jun ? 01:06:50 10° NNE 01:11:14 73° WNW 01:15:01 14° SSW visible
06 Jun ? 02:44:20 10° NNW 02:46:53 15° NW 02:49:26 10° W visible
06 Jun ? 23:52:09 10° NE 23:55:56 27° E 23:59:12 12° SSE visible
